This is the latest recevied weather packets stored in our database for station/object KO4WIL-13. If no packets are shown the sender has not sent any weather packets the latest 1 day(s).
| Time | Temp. | Humidity | Pressure | Rain* | Wind** | Luminosity | Snow |
|---|---|---|---|---|---|---|---|
| 1778048654 | 16.67° C | 70% | 962.5 hPa | 0.25 mm | - | - | - |
| 1778048050 | 16.67° C | 70% | 962.6 hPa | 0.25 mm | - | - | - |
| 1778046540 | 16.67° C | 72% | 963.1 hPa | 0 mm | - | - | - |
| 1778046238 | 16.67° C | 69% | 963.1 hPa | 0 mm | - | - | - |
| 1778045936 | 17.22° C | 69% | 963 hPa | 0 mm | - | - | - |
| 1778045637 | 17.22° C | 70% | 963.1 hPa | 0 mm | - | - | - |
| 1778045029 | 17.22° C | 67% | 963.3 hPa | 0 mm | - | - | - |
| 1778044727 | 17.22° C | 70% | 963.5 hPa | 0 mm | - | - | - |
| 1778044425 | 17.78° C | 67% | 963.3 hPa | 0 mm | - | - | - |
| 1778044122 | 17.78° C | 66% | 963.1 hPa | 0 mm | - | - | - |
| 1778043519 | 17.78° C | 69% | 963.2 hPa | 0 mm | - | - | - |
| 1778043217 | 17.78° C | 65% | 963.1 hPa | 0 mm | - | - | - |
| 1778042915 | 17.78° C | 63% | 963.2 hPa | 0 mm | - | - | - |
| 1778042613 | 18.33° C | 61% | 963.1 hPa | 0 mm | - | - | - |
| 1778042311 | 18.33° C | 63% | 963.3 hPa | 0 mm | - | - | - |
| 1778041404 | 18.89° C | 58% | 963.4 hPa | 0.25 mm | - | - | - |
| 1778040801 | 18.89° C | 58% | 963.9 hPa | 0 mm | - | - | - |
| 1778040499 | 18.89° C | 56% | 963.6 hPa | 0 mm | - | - | - |
| 1778040196 | 18.89° C | 58% | 963.8 hPa | 0 mm | - | - | - |
| 1778039894 | 18.89° C | 56% | 963.8 hPa | 0 mm | - | - | - |
| 1778039592 | 18.89° C | 56% | 963.6 hPa | 0 mm | - | - | - |
| 1778039290 | 18.89° C | 57% | 963.7 hPa | 0 mm | - | - | - |
| 1778038988 | 19.44° C | 55% | 963.8 hPa | 0 mm | - | - | - |
| 1778038686 | 20° C | 53% | 963.8 hPa | 0 mm | - | - | - |
| 1778038384 | 20° C | 51% | 963.9 hPa | 0 mm | - | - | - |
* Rain latest hour (hover to see other rain measurements)
** Current wind speed in m/s (hover to see current wind gust speed)